User: anonymous   Login
Location: Ferchesar
(52.6477°N, 12.4298°E)
Time: 08:53:57
(UTC+01:00)
Language:

Transit 2A - Orbit

View from above orbital plane
View from above orbital plane
View from above satellite
View from above satellite

Ground track
Ground track

The orbit data is extracted from the following two-line orbital elements,

1 00045U 60007A   21335.63640729  .00000023  00000-0  32533-4 0  9998
2 00045  66.6957  58.3991 0262239 287.7433  69.5205 14.33753242142124
Epoch (UTC): 01 December 2021 15:16:25
Eccentricity: 0.0262239
inclination: 66.6957°
perigee height: 591 km
apogee height: 967 km
right ascension of ascending node: 58.3991°
argument of perigee: 287.7433°
revolutions per day: 14.33753242
mean anomaly at epoch: 69.5205°
orbit number at epoch: 14212

The dashed part of the orbit path shows where the satellite is in the earth's shadow,  

DLR